This is the latest recevied weather packets stored in our database for station/object OK5TVR-5. If no packets are shown the sender has not sent any weather packets the latest 10 day(s).
| Time | Temp. | Humidity | Pressure | Rain* | Wind** | Luminosity | Snow |
|---|---|---|---|---|---|---|---|
| 1788219263 | 16.67° C | 72% | 1012.2 hPa | 0 mm | - | 0 W/m² | - |
| 1788218363 | 16.11° C | 72% | 1011.1 hPa | 0 mm | - | 0 W/m² | - |
| 1788217463 | 16.11° C | 71% | 1012.1 hPa | 0 mm | - | 0 W/m² | - |
| 1788216563 | 16.11° C | 71% | 1012 hPa | 0 mm | - | 0 W/m² | - |
| 1788215663 | 16.11° C | 69% | 1012 hPa | 0 mm | - | 0 W/m² | - |
| 1788214763 | 16.11° C | 68% | 1012.1 hPa | 0 mm | - | 0 W/m² | - |
| 1788213863 | 16.67° C | 66% | 1011.8 hPa | 0 mm | - | 0 W/m² | - |
| 1788212963 | 17.22° C | 64% | 1011.5 hPa | 0 mm | - | 0 W/m² | - |
| 1788212063 | 17.22° C | 63% | 1011.5 hPa | 0 mm | - | 0 W/m² | - |
| 1788211163 | 17.22° C | 62% | 1011.2 hPa | 0 mm | - | 0 W/m² | - |
| 1788210263 | 17.78° C | 60% | 1011.1 hPa | 0 mm | - | 0 W/m² | - |
| 1788209363 | 18.33° C | 56% | 1011 hPa | 0 mm | - | 0 W/m² | - |
| 1788208467 | 18.89° C | 56% | 1010.6 hPa | 0 mm | - | 0 W/m² | - |
| 1788207563 | 18.89° C | 56% | 1010.3 hPa | 0 mm | - | 0 W/m² | - |
| 1788206664 | 17.78° C | 61% | 1010.2 hPa | 0 mm | - | 0 W/m² | - |
| 1788205763 | 17.22° C | 64% | 1009.4 hPa | 0 mm | - | 0 W/m² | - |
| 1788204868 | 17.78° C | 64% | 1010 hPa | 0 mm | - | 0 W/m² | - |
| 1788203973 | 18.89° C | 58% | 1009.6 hPa | 0 mm | - | 0 W/m² | - |
| 1788203073 | 18.89° C | 57% | 1009.6 hPa | 0 mm | - | 0 W/m² | - |
| 1788202163 | 18.89° C | 61% | 1009.6 hPa | 0 mm | - | 0 W/m² | - |
| 1788201263 | 18.89° C | 60% | 1009.2 hPa | 0 mm | - | 0 W/m² | - |
| 1788200363 | 19.44° C | 59% | 1008.8 hPa | 0 mm | - | 0 W/m² | - |
| 1788199463 | 20° C | 60% | 1008.6 hPa | 0 mm | - | 0 W/m² | - |
| 1788198568 | 20.56° C | - | - | 0 mm | - | - | - |
| 1788198568 | 20.56° C | 56% | - | 0 mm | - | 2 W/m² | - |
* Rain latest hour (hover to see other rain measurements)
** Current wind speed in m/s (hover to see current wind gust speed)